TimeCDT,TemperatureF,Dew PointF,Humidity,Sea Level PressureIn,VisibilityMPH,Wind Direction,Wind SpeedMPH,Gust SpeedMPH,PrecipitationIn,Events,Conditions,WindDirDegrees,DateUTC
12:15 AM,45.1,40.8,85,30.27,10.0,Calm,Calm,-,N/A,Rain,Light Rain,0,2012-10-12 05:15:00
12:35 AM,45.5,40.3,82,30.28,10.0,NNW,4.6,-,N/A,,Overcast,330,2012-10-12 05:35:00
12:55 AM,44.6,39.2,81,30.28,10.0,North,8.1,-,N/A,,Overcast,350,2012-10-12 05:55:00
1:15 AM,45.1,38.7,78,30.30,10.0,North,9.2,-,N/A,,Overcast,350,2012-10-12 06:15:00
1:35 AM,44.8,37.2,75,30.31,10.0,North,11.5,-,N/A,,Overcast,350,2012-10-12 06:35:00
1:55 AM,44.2,35.2,71,30.31,10.0,North,11.5,-,N/A,,Overcast,360,2012-10-12 06:55:00
2:15 AM,43.7,33.6,68,30.32,10.0,North,11.5,-,N/A,,Overcast,10,2012-10-12 07:15:00
2:35 AM,43.7,33.1,66,30.33,10.0,North,10.4,-,N/A,,Overcast,10,2012-10-12 07:35:00
3:15 AM,42.1,32.0,67,30.33,10.0,North,8.1,-,N/A,,Overcast,360,2012-10-12 08:15:00
3:35 AM,40.6,31.8,71,30.34,10.0,North,9.2,-,N/A,,Scattered Clouds,360,2012-10-12 08:35:00
3:55 AM,40.3,29.3,65,30.34,10.0,North,9.2,-,N/A,,Scattered Clouds,10,2012-10-12 08:55:00
4:15 AM,38.1,29.8,72,30.35,10.0,North,6.9,-,N/A,,Clear,360,2012-10-12 09:15:00
4:35 AM,36.5,30.6,79,30.36,10.0,North,8.1,-,N/A,,Clear,350,2012-10-12 09:35:00
4:55 AM,36.3,30.0,78,30.36,10.0,North,8.1,-,N/A,,Clear,360,2012-10-12 09:55:00
5:15 AM,35.2,29.3,79,30.37,10.0,North,6.9,-,N/A,,Clear,360,2012-10-12 10:15:00
5:35 AM,36.5,28.2,72,30.38,10.0,NNE,8.1,-,N/A,,Clear,20,2012-10-12 10:35:00
5:55 AM,36.0,27.5,71,30.38,10.0,North,6.9,-,N/A,,Clear,10,2012-10-12 10:55:00
6:15 AM,35.6,27.3,72,30.38,10.0,NNE,8.1,-,N/A,,Clear,20,2012-10-12 11:15:00
6:35 AM,35.1,27.3,73,30.39,10.0,North,5.8,-,N/A,,Clear,10,2012-10-12 11:35:00
7:35 AM,32.5,27.3,81,30.41,10.0,North,5.8,-,N/A,,Clear,360,2012-10-12 12:35:00
7:55 AM,34.2,28.4,79,30.42,10.0,North,3.5,-,N/A,,Clear,360,2012-10-12 12:55:00
8:15 AM,36.9,28.6,72,30.43,10.0,North,5.8,-,N/A,,Clear,10,2012-10-12 13:15:00
8:55 AM,39.7,29.8,68,30.43,10.0,NNE,8.1,-,N/A,,Clear,30,2012-10-12 13:55:00
9:15 AM,41.4,31.6,68,30.44,10.0,NNE,9.2,-,N/A,,Clear,30,2012-10-12 14:15:00
9:35 AM,42.8,32.0,66,30.43,10.0,NE,9.2,-,N/A,,Clear,40,2012-10-12 14:35:00
9:55 AM,44.8,34.5,67,30.43,10.0,NE,9.2,-,N/A,,Clear,40,2012-10-12 14:55:00
10:15 AM,44.8,34.9,68,30.44,10.0,ENE,10.4,-,N/A,,Clear,60,2012-10-12 15:15:00
10:35 AM,47.5,35.6,63,30.44,10.0,NE,10.4,-,N/A,,Clear,50,2012-10-12 15:35:00
10:55 AM,48.9,35.6,60,30.44,10.0,ENE,11.5,-,N/A,,Clear,70,2012-10-12 15:55:00
11:15 AM,50.2,34.5,55,30.44,10.0,East,11.5,-,N/A,,Clear,80,2012-10-12 16:15:00
11:35 AM,50.2,33.8,53,30.44,10.0,ENE,11.5,17.3,N/A,,Clear,60,2012-10-12 16:35:00
11:55 AM,51.6,34.0,51,30.43,10.0,ENE,8.1,16.1,N/A,,Clear,70,2012-10-12 16:55:00
12:15 PM,52.5,32.0,46,30.43,10.0,East,11.5,16.1,N/A,,Clear,90,2012-10-12 17:15:00
12:35 PM,53.6,28.4,38,30.42,10.0,ENE,9.2,-,N/A,,Clear,70,2012-10-12 17:35:00
12:55 PM,53.4,29.3,40,30.41,10.0,ESE,10.4,-,N/A,,Clear,120,2012-10-12 17:55:00
1:35 PM,55.4,29.7,37,30.40,10.0,ESE,8.1,-,N/A,,Clear,120,2012-10-12 18:35:00
1:55 PM,54.3,29.5,39,30.39,10.0,East,10.4,17.3,N/A,,Clear,100,2012-10-12 18:55:00
2:35 PM,55.4,30.2,38,30.38,10.0,SE,11.5,-,N/A,,Clear,140,2012-10-12 19:35:00
2:55 PM,55.4,28.4,36,30.37,10.0,South,6.9,-,N/A,,Clear,190,2012-10-12 19:55:00
3:15 PM,54.5,30.4,40,30.37,10.0,SE,4.6,-,N/A,,Clear,130,2012-10-12 20:15:00
3:35 PM,55.4,29.8,38,30.36,10.0,SE,9.2,-,N/A,,Clear,140,2012-10-12 20:35:00
4:15 PM,54.7,28.6,37,30.35,10.0,SE,9.2,-,N/A,,Clear,140,2012-10-12 21:15:00
4:35 PM,54.5,28.8,37,30.34,10.0,SSE,8.1,-,N/A,,Clear,150,2012-10-12 21:35:00
4:55 PM,54.1,29.3,39,30.34,10.0,South,5.8,-,N/A,,Clear,180,2012-10-12 21:55:00
5:15 PM,53.8,29.7,40,30.34,10.0,SE,8.1,-,N/A,,Clear,140,2012-10-12 22:15:00
5:35 PM,53.6,30.2,41,30.34,10.0,ESE,6.9,-,N/A,,Clear,120,2012-10-12 22:35:00
5:55 PM,51.4,30.6,45,30.33,10.0,ESE,6.9,-,N/A,,Clear,120,2012-10-12 22:55:00
6:35 PM,47.3,30.6,52,30.32,10.0,ESE,6.9,-,N/A,,Clear,110,2012-10-12 23:35:00
6:55 PM,45.9,32.0,58,30.32,10.0,ESE,5.8,-,N/A,,Clear,110,2012-10-12 23:55:00
7:15 PM,45.3,32.0,60,30.33,10.0,ESE,6.9,-,N/A,,Clear,110,2012-10-13 00:15:00
7:35 PM,44.1,32.2,63,30.32,10.0,ESE,8.1,-,N/A,,Clear,110,2012-10-13 00:35:00
7:55 PM,43.0,32.4,66,30.31,10.0,East,8.1,-,N/A,,Clear,100,2012-10-13 00:55:00
8:15 PM,41.5,32.4,70,30.31,10.0,East,6.9,-,N/A,,Clear,100,2012-10-13 01:15:00
8:35 PM,40.5,32.4,73,30.30,10.0,East,8.1,-,N/A,,Clear,90,2012-10-13 01:35:00
8:55 PM,41.0,32.0,70,30.30,10.0,East,9.2,-,N/A,,Clear,90,2012-10-13 01:55:00
9:15 PM,40.1,33.1,76,30.29,10.0,East,8.1,-,N/A,,Clear,90,2012-10-13 02:15:00
9:35 PM,40.6,33.4,75,30.28,10.0,East,9.2,-,N/A,,Clear,100,2012-10-13 02:35:00
9:55 PM,42.6,33.8,71,30.28,10.0,East,10.4,-,N/A,,Clear,100,2012-10-13 02:55:00
10:15 PM,42.6,33.8,71,30.28,10.0,East,10.4,-,N/A,,Clear,100,2012-10-13 03:15:00
10:35 PM,43.7,34.0,69,30.27,10.0,ESE,9.2,-,N/A,,Clear,110,2012-10-13 03:35:00
10:55 PM,42.8,33.8,70,30.26,10.0,ESE,9.2,-,N/A,,Clear,110,2012-10-13 03:55:00
11:15 PM,44.2,34.7,69,30.25,10.0,ESE,10.4,-,N/A,,Clear,110,2012-10-13 04:15:00
11:35 PM,44.8,34.9,68,30.25,10.0,ESE,9.2,-,N/A,,Clear,110,2012-10-13 04:35:00
11:55 PM,44.8,34.7,68,30.24,10.0,ESE,9.2,-,N/A,,Clear,120,2012-10-13 04:55:00